Find Starlink 11235

NORAD ID: 60726 Int'l Des: 2024-152 Owner: SPXS Country: US Constellation: starlink operational
又名: STARLINK-11235 [DTC] celestrak
LEOCIRCULAR

当前视图

正在加载3D地球...

About Starlink 11235

Starlink 11235 (NORAD 60726) is a starlink constellation satellite (v2 mini d2c) launched Aug 28, 2024 by SPXS of US. It operates in LEO, CIRCULAR orbit with a mass of 960.00 kg.

即将过境

Passes for default location (London). Set your location on the main map for personalized predictions.

高度历史

Loading altitude history...

两行轨道根数

1 60726U 24152G 26250.13620671 .00000500 00000-0 89868-5 0 9995
2 60726 53.1586 301.7645 0001045 63.9768 296.1358 15.69710198117466
Epoch: Sep 7, 2026 • Age: 21 hours

当前状态

高度 366.2 km
远地点 / 近地点 N/A
速度 7.69 km/s
星下点 -22.47°S, 75.77°W
发射日期 Aug 28, 2024
运行时间 2 years
类型 internet

技术详情

分类 Payload
质量 960.00 kg
干质量 910.00 kg
总质量 960.00 kg
长度 0.30 m
直径 4.10 m
跨度 29.00 m
形状 Box + pan
制造商 SPXS
平台类型 Starlink V2MD
阶段状态 In Orbit
所有者/国家 SPXS/US

Most Searched